Weather History for KRDR - June, 2013

Change the Weather History Date:

Thursday, June 13, 2013

  Actual Average Record
Temperature  
Mean Temperature 64 °F -  
Max Temperature 77 °F 71 °F 86 °F (1998)
Min Temperature 52 °F 50 °F 46 °F (1999)
Growing Degree Days 14 (Base 50)    
Moisture  
Dew Point 54 °F    
Average Humidity 68    
Maximum Humidity 99    
Minimum Humidity 40    
Precipitation  
Precipitation 0.00 in - - ()
Sea Level Pressure  
Sea Level Pressure 30.12 in    
Wind  
Wind Speed 6 mph (ENE)    
Max Wind Speed 8 mph    
Max Gust Speed -    
Visibility 10 miles    
Events      
Averages and records for this station are not official NWS values.
T = Trace of Precipitation, MM = Missing Value Source: NWS Daily Summary

Daily Weather History Graph

Daily Weather History Graph

Search for Another Location

Airport or City:

Trip Planner

Search our weather history database for the weather conditions in past years. The results will help you decide how hot, cold, wet, or windy it might be!

Date:

Astronomy

Jun. 13, 2013 Rise Set
Actual Time 5:29 AM CDT 9:29 PM CDT
Civil Twilight 4:48 AM CDT 10:11 PM CDT
Nautical Twilight 3:51 AM CDT 11:08 PM CDT
Astronomical Twilight 2:17 AM CDT 12:43 AM CDT
Moon 10:25 AM CDT (6/13) No Moon Set
Length of Visible Light 17h 22m
Length of Day
16h 00m
Waxing Crescent, 22% of the Moon is Illuminated
Jun 13
Waxing Crescent
Jun 16
First Quarter
Jun 23
Full
Jun 29
Last Quarter
Jul 8
New

Hourly Weather History & Observations

Time (CDT) Temp. Dew Point Humidity Pressure Visibility Wind Dir Wind Speed Gust Speed Precip Events Conditions
12:58 AM 56.1 °F 53.4 °F 91% 30.11 in 10.0 mi NW 5.8 mph - N/A   Clear
1:58 AM 55.9 °F 53.6 °F 92% 30.14 in 10.0 mi WNW 6.9 mph - N/A   Clear
2:58 AM 56.1 °F 53.6 °F 91% 30.15 in 10.0 mi NW 6.9 mph - N/A   Clear
3:58 AM 55.2 °F 53.8 °F 95% 30.15 in 10.0 mi NW 5.8 mph - N/A   Clear
4:58 AM 53.2 °F 52.9 °F 99% 30.15 in 10.0 mi North 6.9 mph - N/A   Clear
5:58 AM 52.7 °F 52.5 °F 99% 30.16 in 10.0 mi North 3.5 mph - N/A   Clear
6:58 AM 55.9 °F 55.8 °F 99% 30.16 in 10.0 mi North 4.6 mph - N/A   Clear
7:58 AM 59.5 °F 56.3 °F 89% 30.17 in 10.0 mi NNE 5.8 mph - N/A   Clear
8:58 AM 62.2 °F 55.6 °F 79% 30.18 in 10.0 mi NE 2.3 mph - N/A   Clear
9:58 AM 65.3 °F 56.3 °F 73% 30.18 in 10.0 mi ENE 4.6 mph - N/A   Clear
10:58 AM 68.9 °F 56.3 °F 64% 30.17 in 10.0 mi Variable 3.5 mph - N/A   Clear
11:58 AM 71.2 °F 56.3 °F 59% 30.17 in 10.0 mi Variable 3.5 mph - N/A   Clear
12:58 PM 72.5 °F 55.2 °F 54% 30.16 in 10.0 mi ESE 5.8 mph - N/A   Clear
1:58 PM 73.4 °F 54.1 °F 51% 30.14 in 10.0 mi SSE 5.8 mph - N/A   Partly Cloudy
2:58 PM 75.0 °F 53.6 °F 47% 30.12 in 10.0 mi ENE 5.8 mph - N/A   Partly Cloudy
3:58 PM 75.6 °F 52.5 °F 45% 30.09 in 10.0 mi SE 5.8 mph - N/A   Clear
4:58 PM 76.8 °F 52.3 °F 42% 30.09 in 10.0 mi East 3.5 mph - N/A   Partly Cloudy
5:58 PM 77.0 °F 51.8 °F 41% 30.08 in 10.0 mi South 5.8 mph - N/A   Partly Cloudy
6:58 PM 75.6 °F 51.6 °F 43% 30.05 in 10.0 mi SE 5.8 mph - N/A   Clear
7:58 PM 75.7 °F 50.0 °F 40% 30.04 in 10.0 mi East 6.9 mph - N/A   Clear
8:58 PM 72.0 °F 50.7 °F 47% 30.04 in 10.0 mi East 5.8 mph - N/A   Clear
9:58 PM 67.3 °F 52.2 °F 58% 30.04 in 10.0 mi East 4.6 mph - N/A   Clear
10:58 PM 65.8 °F 52.5 °F 62% 30.02 in 10.0 mi East 5.8 mph - N/A   Clear
11:58 PM 65.5 °F 53.2 °F 65% 30.01 in 10.0 mi East 8.1 mph - N/A   Clear